Time,TemperatureF,DewpointF,PressureIn,WindDirection,WindDirectionDegrees,WindSpeedMPH,WindSpeedGustMPH,Humidity,HourlyPrecipIn,Conditions,Clouds,dailyrainin,SolarRadiationWatts/m^2,SoftwareType,DateUTC
2013-05-25 00:01:00,38.0,22.0,-100.00,NNE,24,1.0,4.0,51,0.00,,,0.06,0.000000,,2013-05-25 06:01:00,
2013-05-25 00:22:00,39.0,18.0,-100.00,ESE,110,1.0,5.0,43,0.00,,,0.06,0.000000,,2013-05-25 06:22:00,
2013-05-25 00:32:00,39.0,18.0,-100.00,ESE,110,1.0,5.0,43,0.00,,,0.06,0.000000,,2013-05-25 06:32:00,
2013-05-25 00:42:00,39.0,18.0,-100.00,ESE,110,1.0,5.0,43,0.00,,,0.06,0.000000,,2013-05-25 06:42:00,
2013-05-25 00:52:00,39.0,18.0,-100.00,ESE,110,1.0,5.0,43,0.00,,,0.06,0.000000,,2013-05-25 06:52:00,
2013-05-25 01:01:00,39.0,18.0,-100.00,ESE,110,1.0,5.0,43,0.00,,,0.06,0.000000,,2013-05-25 07:01:00,
2013-05-25 01:22:00,40.0,15.0,-100.00,SE,135,1.0,5.0,35,-99.99,,,0.04,0.000000,,2013-05-25 07:22:00,
2013-05-25 01:32:00,40.0,15.0,-100.00,SE,135,1.0,5.0,35,-99.99,,,0.04,0.000000,,2013-05-25 07:32:00,
2013-05-25 02:01:00,40.0,15.0,-100.00,SE,135,1.0,5.0,35,-99.99,,,0.04,0.000000,,2013-05-25 08:01:00,
2013-05-25 02:23:00,38.0,15.0,-100.00,ESE,112,2.0,5.0,39,-99.99,,,0.03,0.000000,,2013-05-25 08:23:00,
2013-05-25 02:32:00,38.0,15.0,-100.00,ESE,112,2.0,5.0,39,-99.99,,,0.03,0.000000,,2013-05-25 08:32:00,
2013-05-25 03:01:00,38.0,15.0,-100.00,ESE,112,2.0,5.0,39,-99.99,,,0.03,0.000000,,2013-05-25 09:01:00,
2013-05-25 03:21:00,42.0,15.0,-100.00,SE,133,2.0,7.0,33,-99.99,,,0.03,0.000000,,2013-05-25 09:21:00,
2013-05-25 03:33:00,42.0,15.0,-100.00,SE,133,2.0,7.0,33,-99.99,,,0.03,0.000000,,2013-05-25 09:33:00,
2013-05-25 04:23:00,38.0,15.0,-100.00,SSW,198,2.0,6.0,39,-99.99,,,0.03,0.000000,,2013-05-25 10:23:00,
2013-05-25 04:33:00,38.0,15.0,-100.00,SSW,198,2.0,6.0,39,-99.99,,,0.03,0.000000,,2013-05-25 10:33:00,
2013-05-25 04:42:00,38.0,15.0,-100.00,SSW,198,2.0,6.0,39,-99.99,,,0.03,0.000000,,2013-05-25 10:42:00,
2013-05-25 04:52:00,38.0,15.0,-100.00,SSW,198,2.0,6.0,39,-99.99,,,0.03,0.000000,,2013-05-25 10:52:00,
2013-05-25 05:02:00,38.0,15.0,-100.00,SSW,198,2.0,6.0,39,-99.99,,,0.03,0.000000,,2013-05-25 11:02:00,
2013-05-25 05:22:00,42.0,14.0,-100.00,NNW,331,1.0,8.0,32,-99.99,,,0.02,0.000000,,2013-05-25 11:22:00,
2013-05-25 05:32:00,42.0,14.0,-100.00,NNW,331,1.0,8.0,32,-99.99,,,0.02,0.000000,,2013-05-25 11:32:00,
2013-05-25 06:22:00,41.0,12.0,-100.00,NW,314,1.0,7.0,30,-99.99,,,0.02,1.000000,,2013-05-25 12:22:00,
2013-05-25 06:32:00,41.0,12.0,-100.00,NW,314,1.0,7.0,30,-99.99,,,0.02,1.000000,,2013-05-25 12:32:00,
2013-05-25 07:22:00,43.0,19.0,-100.00,East,99,2.0,5.0,38,-99.99,,,-99.99,37.000000,,2013-05-25 13:22:00,
2013-05-25 07:32:00,43.0,19.0,-100.00,East,99,2.0,5.0,38,-99.99,,,-99.99,37.000000,,2013-05-25 13:32:00,
2013-05-25 08:22:00,52.0,28.0,-100.00,NE,40,0.0,5.0,39,-99.99,,,0.02,138.000000,,2013-05-25 14:22:00,
2013-05-25 08:32:00,52.0,28.0,-100.00,NE,40,0.0,5.0,39,-99.99,,,0.02,138.000000,,2013-05-25 14:32:00,
2013-05-25 09:22:00,63.0,25.0,-100.00,NNE,31,1.0,4.0,23,-99.99,,,0.00,447.000000,,2013-05-25 15:22:00,
2013-05-25 09:33:00,63.0,25.0,-100.00,NNE,31,1.0,4.0,23,-99.99,,,0.00,447.000000,,2013-05-25 15:33:00,
2013-05-25 10:23:00,67.0,26.0,-100.00,ENE,76,3.0,15.0,21,-99.99,,,0.00,628.000000,,2013-05-25 16:23:00,
2013-05-25 10:33:00,67.0,26.0,-100.00,ENE,76,3.0,15.0,21,-99.99,,,0.00,628.000000,,2013-05-25 16:33:00,
2013-05-25 11:22:00,65.0,27.0,-100.00,West,268,2.0,12.0,24,-99.99,,,0.00,767.000000,,2013-05-25 17:22:00,
2013-05-25 11:33:00,65.0,27.0,-100.00,West,268,2.0,12.0,24,-99.99,,,0.00,767.000000,,2013-05-25 17:33:00,
2013-05-25 11:42:00,65.0,27.0,-100.00,West,268,2.0,12.0,24,-99.99,,,0.00,767.000000,,2013-05-25 17:42:00,
2013-05-25 11:52:00,65.0,27.0,-100.00,West,268,2.0,12.0,24,-99.99,,,0.00,767.000000,,2013-05-25 17:52:00,
2013-05-25 12:01:00,65.0,27.0,-100.00,West,268,2.0,12.0,24,-99.99,,,0.00,767.000000,,2013-05-25 18:01:00,
2013-05-25 12:22:00,63.0,30.0,-100.00,WNW,289,1.0,7.0,29,0.00,,,0.00,478.000000,,2013-05-25 18:22:00,
2013-05-25 12:32:00,63.0,30.0,-100.00,WNW,289,1.0,7.0,29,0.00,,,0.00,478.000000,,2013-05-25 18:32:00,
2013-05-25 12:42:00,63.0,30.0,-100.00,WNW,289,1.0,7.0,29,0.00,,,0.00,478.000000,,2013-05-25 18:42:00,
2013-05-25 12:52:00,63.0,30.0,-100.00,WNW,289,1.0,7.0,29,0.00,,,0.00,478.000000,,2013-05-25 18:52:00,
2013-05-25 13:01:00,63.0,30.0,-100.00,WNW,289,1.0,7.0,29,0.00,,,0.00,478.000000,,2013-05-25 19:01:00,
2013-05-25 13:22:00,64.0,32.0,-100.00,ESE,110,2.0,6.0,30,0.00,,,0.00,508.000000,,2013-05-25 19:22:00,
2013-05-25 13:32:00,64.0,32.0,-100.00,ESE,110,2.0,6.0,30,0.00,,,0.00,508.000000,,2013-05-25 19:32:00,
2013-05-25 13:42:00,64.0,32.0,-100.00,ESE,110,2.0,6.0,30,0.00,,,0.00,508.000000,,2013-05-25 19:42:00,
2013-05-25 13:52:00,64.0,32.0,-100.00,ESE,110,2.0,6.0,30,0.00,,,0.00,508.000000,,2013-05-25 19:52:00,
2013-05-25 14:02:00,64.0,32.0,-100.00,ESE,110,2.0,6.0,30,0.00,,,0.00,508.000000,,2013-05-25 20:02:00,
2013-05-25 14:22:00,65.0,34.0,-100.00,North,358,2.0,7.0,31,0.00,,,0.00,785.000000,,2013-05-25 20:22:00,
2013-05-25 14:32:00,65.0,34.0,-100.00,North,358,2.0,7.0,31,0.00,,,0.00,785.000000,,2013-05-25 20:32:00,
2013-05-25 14:42:00,65.0,34.0,-100.00,North,358,2.0,7.0,31,0.00,,,0.00,785.000000,,2013-05-25 20:42:00,
2013-05-25 14:52:00,65.0,34.0,-100.00,North,358,2.0,7.0,31,0.00,,,0.00,785.000000,,2013-05-25 20:52:00,
2013-05-25 15:01:00,65.0,34.0,-100.00,North,358,2.0,7.0,31,0.00,,,0.00,785.000000,,2013-05-25 21:01:00,
2013-05-25 15:22:00,59.0,31.0,-100.00,West,268,2.0,9.0,35,0.00,,,0.00,443.000000,,2013-05-25 21:22:00,
2013-05-25 15:33:00,59.0,31.0,-100.00,West,268,2.0,9.0,35,0.00,,,0.00,443.000000,,2013-05-25 21:33:00,
2013-05-25 15:43:00,59.0,31.0,-100.00,West,268,2.0,9.0,35,0.00,,,0.00,443.000000,,2013-05-25 21:43:00,
2013-05-25 15:53:00,59.0,31.0,-100.00,West,268,2.0,9.0,35,0.00,,,0.00,443.000000,,2013-05-25 21:53:00,
2013-05-25 16:02:00,59.0,31.0,-100.00,West,268,2.0,9.0,35,0.00,,,0.00,443.000000,,2013-05-25 22:02:00,
2013-05-25 16:23:00,59.0,33.0,-100.00,WSW,245,2.0,9.0,37,0.00,,,0.00,306.000000,,2013-05-25 22:23:00,
2013-05-25 16:33:00,59.0,33.0,-100.00,WSW,245,2.0,9.0,37,0.00,,,0.00,306.000000,,2013-05-25 22:33:00,
2013-05-25 16:42:00,59.0,33.0,-100.00,WSW,245,2.0,9.0,37,0.00,,,0.00,306.000000,,2013-05-25 22:42:00,
2013-05-25 16:52:00,59.0,33.0,-100.00,WSW,245,2.0,9.0,37,0.00,,,0.00,306.000000,,2013-05-25 22:52:00,
2013-05-25 17:02:00,59.0,33.0,-100.00,WSW,245,2.0,9.0,37,0.00,,,0.00,306.000000,,2013-05-25 23:02:00,
2013-05-25 17:22:00,59.0,28.0,-100.00,SW,221,2.0,8.0,31,0.00,,,0.00,340.000000,,2013-05-25 23:22:00,
2013-05-25 17:32:00,59.0,28.0,-100.00,SW,221,2.0,8.0,31,0.00,,,0.00,340.000000,,2013-05-25 23:32:00,
2013-05-25 17:42:00,59.0,28.0,-100.00,SW,221,2.0,8.0,31,0.00,,,0.00,340.000000,,2013-05-25 23:42:00,
2013-05-25 17:52:00,59.0,28.0,-100.00,SW,221,2.0,8.0,31,0.00,,,0.00,340.000000,,2013-05-25 23:52:00,
2013-05-25 18:01:00,59.0,28.0,-100.00,SW,221,2.0,8.0,31,0.00,,,0.00,340.000000,,2013-05-26 00:01:00,
2013-05-25 18:22:00,58.0,32.0,-100.00,NW,310,1.0,7.0,37,0.00,,,0.00,174.000000,,2013-05-26 00:22:00,
2013-05-25 18:32:00,58.0,32.0,-100.00,NW,310,1.0,7.0,37,0.00,,,0.00,174.000000,,2013-05-26 00:32:00,
2013-05-25 18:42:00,58.0,32.0,-100.00,NW,310,1.0,7.0,37,0.00,,,0.00,174.000000,,2013-05-26 00:42:00,
2013-05-25 18:52:00,58.0,32.0,-100.00,NW,310,1.0,7.0,37,0.00,,,0.00,174.000000,,2013-05-26 00:52:00,
2013-05-25 19:01:00,58.0,32.0,-100.00,NW,310,1.0,7.0,37,0.00,,,0.00,174.000000,,2013-05-26 01:01:00,
2013-05-25 19:21:00,56.0,31.0,-100.00,SW,224,1.0,5.0,39,0.00,,,0.00,107.000000,,2013-05-26 01:21:00,
2013-05-25 19:32:00,56.0,31.0,-100.00,SW,224,1.0,5.0,39,0.00,,,0.00,107.000000,,2013-05-26 01:32:00,
2013-05-25 19:42:00,56.0,31.0,-100.00,SW,224,1.0,5.0,39,0.00,,,0.00,107.000000,,2013-05-26 01:42:00,
2013-05-25 19:52:00,56.0,31.0,-100.00,SW,224,1.0,5.0,39,0.00,,,0.00,107.000000,,2013-05-26 01:52:00,
2013-05-25 20:02:00,56.0,31.0,-100.00,SW,224,1.0,5.0,39,0.00,,,0.00,107.000000,,2013-05-26 02:02:00,
2013-05-25 20:21:00,52.0,29.0,-100.00,South,182,1.0,6.0,41,0.00,,,0.00,52.000000,,2013-05-26 02:21:00,
2013-05-25 20:32:00,52.0,29.0,-100.00,South,182,1.0,6.0,41,0.00,,,0.00,52.000000,,2013-05-26 02:32:00,
2013-05-25 20:42:00,52.0,29.0,-100.00,South,182,1.0,6.0,41,0.00,,,0.00,52.000000,,2013-05-26 02:42:00,
2013-05-25 20:52:00,52.0,29.0,-100.00,South,182,1.0,6.0,41,0.00,,,0.00,52.000000,,2013-05-26 02:52:00,
2013-05-25 21:01:00,52.0,29.0,-100.00,South,182,1.0,6.0,41,0.00,,,0.00,52.000000,,2013-05-26 03:01:00,
2013-05-25 21:22:00,47.0,32.0,-100.00,NNE,33,1.0,6.0,55,0.00,,,0.00,11.000000,,2013-05-26 03:22:00,
2013-05-25 21:33:00,47.0,32.0,-100.00,NNE,33,1.0,6.0,55,0.00,,,0.00,11.000000,,2013-05-26 03:33:00,
2013-05-25 21:43:00,47.0,32.0,-100.00,NNE,33,1.0,6.0,55,0.00,,,0.00,11.000000,,2013-05-26 03:43:00,
2013-05-25 21:53:00,47.0,32.0,-100.00,NNE,33,1.0,6.0,55,0.00,,,0.00,11.000000,,2013-05-26 03:53:00,
2013-05-25 22:02:00,47.0,32.0,-100.00,NNE,33,1.0,6.0,55,0.00,,,0.00,11.000000,,2013-05-26 04:02:00,
2013-05-25 22:23:00,46.0,26.0,-100.00,ESE,111,1.0,9.0,46,0.00,,,0.00,0.000000,,2013-05-26 04:23:00,
2013-05-25 22:33:00,46.0,26.0,-100.00,ESE,111,1.0,9.0,46,0.00,,,0.00,0.000000,,2013-05-26 04:33:00,
2013-05-25 22:42:00,46.0,26.0,-100.00,ESE,111,1.0,9.0,46,0.00,,,0.00,0.000000,,2013-05-26 04:42:00,
2013-05-25 22:52:00,46.0,26.0,-100.00,ESE,111,1.0,9.0,46,0.00,,,0.00,0.000000,,2013-05-26 04:52:00,
2013-05-25 23:02:00,46.0,26.0,-100.00,ESE,111,1.0,9.0,46,0.00,,,0.00,0.000000,,2013-05-26 05:02:00,
2013-05-25 23:22:00,46.0,21.0,-100.00,SSW,201,2.0,8.0,36,0.00,,,0.00,0.000000,,2013-05-26 05:22:00,
2013-05-25 23:32:00,46.0,21.0,-100.00,SSW,201,2.0,8.0,36,0.00,,,0.00,0.000000,,2013-05-26 05:32:00,